sat.trackr.live / text

‹ back to catalog

STARLINK-32108

NORAD 59682 · 2024-086A

PAYLOAD ACTIVE UNKNOWN

§ Identity

Operator
Country
US
Launch date
2024-05-08
Launch site
AFETR
Launch vehicle
Mass (kg)
RCS (m²)

Purposes: comms

External: N2YO · Heavens-Above · Gunter

§ Orbital elements

Epoch: 2026-05-24T22:53:30.511968Z

Period
94.27 min
Inclination
43.0050°
Eccentricity
0.0001071
Mean motion
15.27579326 rev/d
Perigee alt
482.3 km
Apogee alt
483.8 km
Semi-major
6,861.2 km
B*
-1.2822e-5
RAAN
352.8043°
Arg perigee
271.4735°
Mean anomaly
88.5994°
Rev number
11,572

§ Raw data

STARLINK-321081 59682U 24086A   26144.95382537 -.00000615  00000+0 -12822-4 0  99912 59682  43.0050 352.8043 0001071 271.4735  88.5994 15.27579326115723

JSON: /api/v1/satellites/59682 · /tle

For live sub-satellite position, see the globe view (requires WebGL).

§ Visibility from observer

Set your observer location to see the next 7 days of passes ≥ 10°. The values pass through the URL so the page stays shareable.

No JS? Fill the form by hand. The geolocation button needs JavaScript.